Location: Molveno
(46.1500°N, 10.9667°E)
Time: 17:12:11
(UTC+00:00)

Okean 3 Rocket - Pass Details

Date: 05 July 2020
Orbit: 615 x 645 km, 82.5° (Epoch: 10 August)

Event Time Altitude Azimuth Distance (km) Brightness Sun altitude
Exits shadow 22:47:02 52° 200° (SSW) 789 3.7 -20.8°
Maximum altitude 22:48:06 81° 278° (W) 643 3.5 -20.8°
Drops below altitude 10° 22:52:34 10° 7° (N) 2,009 7.3 -20.9°
Sets 22:54:48 0° 9° (N) 2,916 8.4 -20.9°
